{"data":{"norad_id":58377,"epoch":"2026-05-24T21:37:26.691168Z","epoch_age_seconds":80640,"freshness":"FRESH","line1":"1 58377U 23178D   26144.90100337 -.00001835  00000+0 -43184-4 0  9993","line2":"2 58377  53.1601   6.0809 0000970  70.7982 289.3126 15.34400150141572","mean_motion":15.3440015,"eccentricity":9.7e-5,"inclination_deg":53.1601,"raan_deg":6.0809,"arg_perigee_deg":70.7982,"mean_anomaly_deg":289.3126,"bstar":-4.3184e-5,"rev_number":14157,"period_min":93.847748906959,"perigee_km":462.03923291548,"apogee_km":463.36635583558,"semimajor_km":6840.8397943755,"source":"CELESTRAK","updated_at":"2026-05-25T13:38:18.612060Z"}}